Content
SEND FEEDBACK

Daily
Averages
Monthly
Summary
United States of America

ELWIN, ILLINOIS


Home > North America > United States > Illinois
Elevation: 673 feet     Latitude: 39 49N     Longitude: 089 01W

WEATHER
 
SELECT A DAY
Number of Records: 190,573;   Date Range: 1/1/95 - 7/29/14
 
SHARE

PRINT THIS DATA

[ ← Previous Day ]
WEATHER ALMANAC - JANUARY 23, 2013
[ Next Day → ]
[ °C ]   °F
Weather ElementAverageHighLow
Temperature24.9 °F35.1 °F (3:54 pm)15.1 °F (1:54 am)
Dewpoint9.4 °F17.6 °F (7:32 pm)-0.9 °F (1:54 am)
Humidity52.1 %62 % (11:54 pm)42 % (3:54 pm)
Barometer30.26 in30.39 in (1:54 am)30.14 in (3:54 pm)
Wind Speed9.6 mph18.4 mph (10:54 pm)
Wind Gust26.5 mph (9:54 pm)
Weather ElementAverage
Visibility10 mi
Wind DirectionSSW (206.5 °)

Weather ElementTotal
Precipitation---
Heating Degree Days39.9 (Base 65)
Averaged from 23 records on January 23, 2013
WEATHER CONDITIONS BREAKOUT
WIND DIRECTION BREAKOUT
WEATHER BY HOUR - JANUARY 23, 2013
[ °C ]   °F
Local TimeTemperatureDewpointHumidityBarometerVisibilityWind DirectionWind SpeedGust SpeedPrecipitationEventsConditions
1:54 AM15.1 °F-0.9 °F49 %30.39 in10.0 miWest (270°)3.5 mphOvercast
2:54 AM15.1 °F0.0 °F51 %30.38 in10.0 miWSW (250°)3.5 mphOvercast
3:54 AM16.0 °F0.0 °F49 %30.35 in10.0 miCalmOvercast
4:54 AM16.0 °F0.0 °F49 %30.35 in10.0 miCalmOvercast
5:54 AM17.1 °F1.0 °F50 %30.34 in10.0 miCalmOvercast
6:54 AM17.1 °F1.9 °F52 %30.35 in10.0 miSouth (180°)4.6 mphOvercast
7:54 AM17.1 °F3.0 °F54 %30.34 in10.0 miSSW (200°)6.9 mphOvercast
9:54 AM21.9 °F8.1 °F55 %30.32 in10.0 miSSW (200°)12.7 mphOvercast
10:54 AM25.0 °F9.0 °F51 %30.29 in10.0 miSW (230°)10.4 mphOvercast
11:54 AM28.0 °F10.0 °F47 %30.24 in10.0 miSW (230°)11.5 mphMostly Cloudy
12:54 PM32.0 °F12.0 °F44 %30.19 in10.0 miSW (220°)13.8 mph20.7 mphClear
1:54 PM33.1 °F12.9 °F43 %30.16 in10.0 miWSW (250°)12.7 mphClear
2:54 PM34.0 °F14.0 °F44 %30.15 in10.0 miWSW (250°)11.5 mphClear
3:54 PM35.1 °F14.0 °F42 %30.14 in10.0 miWest (270°)10.4 mphClear
4:54 PM33.1 °F15.1 °F48 %30.16 in10.0 miWest (280°)10.4 mphClear
5:54 PM32.0 °F16.0 °F52 %30.16 in10.0 miWNW (290°)8.1 mphClear
6:54 PM30.9 °F17.1 °F57 %30.19 in10.0 miWNW (300°)12.7 mph19.6 mphClear
7:32 PM30.2 °F17.6 °F60 %30.17 in10.0 miNorthClear
7:54 PM28.9 °F17.1 °F61 %30.21 in10.0 miNorthClear
8:54 PM27.0 °F15.1 °F61 %30.24 in10.0 miNW (320°)15.0 mph25.3 mphClear
9:54 PM26.1 °F14.0 °F60 %30.27 in10.0 miNW (320°)16.1 mph26.5 mphClear
10:54 PM23.0 °F10.0 °F58 %30.31 in10.0 miNNW (340°)18.4 mph24.2 mphPartly Cloudy
11:54 PM19.9 °F9.0 °F62 %30.35 in10.0 miNorth (350°)18.4 mph26.5 mphClear
Hourly data recorded from KDEC, located miles away from Elwin, Illinois







STORIES FROM OUR PARTNERS